TimeCDT,TemperatureF,Dew PointF,Humidity,Sea Level PressureIn,VisibilityMPH,Wind Direction,Wind SpeedMPH,Gust SpeedMPH,PrecipitationIn,Events,Conditions,WindDirDegrees,DateUTC
12:53 AM,42.1,21.0,43,30.10,10.0,SE,5.8,-,N/A,,Clear,130,2013-04-05 05:53:00
1:53 AM,37.0,19.9,50,30.11,10.0,Calm,Calm,-,N/A,,Clear,0,2013-04-05 06:53:00
2:53 AM,35.1,21.9,59,30.11,10.0,Calm,Calm,-,N/A,,Clear,0,2013-04-05 07:53:00
3:53 AM,37.0,21.9,54,30.10,10.0,Calm,Calm,-,N/A,,Clear,0,2013-04-05 08:53:00
4:53 AM,35.1,25.0,67,30.09,10.0,ESE,4.6,-,N/A,,Clear,110,2013-04-05 09:53:00
5:53 AM,37.0,26.1,65,30.08,10.0,SE,9.2,-,N/A,,Clear,130,2013-04-05 10:53:00
6:53 AM,36.0,27.0,70,30.07,10.0,ESE,9.2,-,N/A,,Clear,120,2013-04-05 11:53:00
7:53 AM,37.0,28.0,70,30.06,10.0,SE,12.7,18.4,N/A,,Clear,130,2013-04-05 12:53:00
8:53 AM,39.0,28.9,67,30.05,10.0,SE,15.0,23.0,N/A,,Clear,140,2013-04-05 13:53:00
9:53 AM,45.0,30.9,58,30.02,10.0,SE,15.0,23.0,N/A,,Clear,140,2013-04-05 14:53:00
10:53 AM,51.1,33.1,50,29.97,10.0,SSE,16.1,31.1,N/A,,Clear,150,2013-04-05 15:53:00
11:53 AM,57.9,32.0,37,29.93,10.0,SSE,20.7,31.1,N/A,,Clear,160,2013-04-05 16:53:00
12:53 PM,63.0,30.9,30,29.87,10.0,South,26.5,34.5,N/A,,Clear,170,2013-04-05 17:53:00
1:53 PM,64.9,28.0,25,29.82,10.0,South,24.2,32.2,N/A,,Clear,170,2013-04-05 18:53:00
2:53 PM,70.0,30.0,23,29.76,10.0,South,26.5,34.5,N/A,,Clear,180,2013-04-05 19:53:00
3:53 PM,71.1,30.0,22,29.73,10.0,South,23.0,39.1,N/A,,Clear,180,2013-04-05 20:53:00
4:53 PM,70.0,30.0,23,29.70,10.0,South,24.2,34.5,N/A,,Clear,180,2013-04-05 21:53:00
6:53 PM,71.1,30.9,23,29.64,10.0,South,20.7,31.1,N/A,,Clear,170,2013-04-05 23:53:00
7:53 PM,66.0,33.1,29,29.64,10.0,South,23.0,31.1,N/A,,Unknown,180,2013-04-06 00:53:00
8:53 PM,62.1,35.1,37,29.64,10.0,South,13.8,-,N/A,,Clear,170,2013-04-06 01:53:00
9:53 PM,61.0,37.9,42,29.64,10.0,South,12.7,-,N/A,,Clear,180,2013-04-06 02:53:00
10:53 PM,59.0,39.9,49,29.63,10.0,South,12.7,-,N/A,,Clear,180,2013-04-06 03:53:00
11:53 PM,57.9,39.9,51,29.60,10.0,South,11.5,-,N/A,,Clear,180,2013-04-06 04:53:00